Regional Weather Roundup
Issued by NWS Newport/Morehead, NC

Current Version | Previous Version | Graphics & Text | Print | Product List | Glossary Off
Versions: 1 2 3 4 5 6 7 8 9 10 11 12 13 14 15 16 17 18 19 20 21 22 23 24 25 26 27 28 29 30 31 32 33 34 35 36 37 38 39 40 41 42 43 44 45 46 47 48 49 50

000
ASUS42 KMHX 040625
RWRMHX
WEATHER ROUNDUP FOR EASTERN NORTH CAROLINA
NATIONAL WEATHER SERVICE NEWPORT/MOREHEAD CITY NC
200 AM EDT TUE AUG 04 2015

NOTE: "FAIR" INDICATES FEW OR NO CLOUDS BELOW 12,000 FEET
WITH NO SIGNIFICANT WEATHER AND/OR OBSTRUCTIONS TO VISIBILITY

NCZ015>017-031-032-045>047-102-103-040700-
NORTH COAST

CITY           SKY/WX    TMP DP  RH WIND       PRES   REMARKS
EDENTON        CLEAR     77  74  90 SW8       29.97F
ELIZABETH CITY CLEAR     77  74  90 SW12      29.97R
KITTY HAWK     CLEAR     79  74  86 SW9       29.96S
MANTEO         CLEAR     79  76  90 SW15      29.98S

$$

NCZ045>047-081-094-103-104-040700-
CENTRAL COAST

CITY           SKY/WX    TMP DP  RH WIND       PRES   REMARKS
FRISCO         MOCLDY    80  75  84 SW14      30.00S
SWANQUARTER      N/A     81 N/A N/A S15G22    29.94S

$$

NCZ095-097-098-100-101-040700-
SOUTHERN COAST

CITY           SKY/WX    TMP DP  RH WIND       PRES   REMARKS
BEAUFORT       CLOUDY    81  78  91 S10       29.99F
CEDAR ISLAND     N/A     79 N/A N/A SE10      30.03S
JACKSONVILLE   CLOUDY    80  76  87 S6        29.98S
PINEY ISLAND   CLOUDY   N/A N/A N/A S6        29.99S
WILMINGTON     MOCLDY    80  76  87 S5        29.98S


$$

NCZ011>013-027>030-043-044-078>080-089-090>093-098-040700-
COASTAL PLAIN

CITY           SKY/WX    TMP DP  RH WIND       PRES   REMARKS
AHOSKIE        CLEAR     74  71  90 S5        29.95F
CLINTON        PTCLDY    75  74  99 CALM      29.98S
ELIZABETHTOWN  MOCLDY    75  74  95 CALM      29.97S
GOLDSBORO      CLEAR     76  74  95 S3        29.95F
GREENVILLE     CLEAR     75  73  94 SW7       29.99S
HAVELOCK       CLOUDY    79  75  89 S6        30.00S
KENANSVILLE    PTCLDY   N/A N/A N/A CALM      29.99S
KINSTON        PTCLDY    76  74  93 S7        29.98S
NEW BERN       MOCLDY    78  75  90 SW3       30.00S
RICHLANDS      MOCLDY    77  72  83 CALM      29.98F
ROCKY MOUNT    CLEAR     76  74  93 SW8       29.96F
WASHINGTON     CLEAR     75  74  95 S5        29.98S
WHITEVILLE     MOCLDY    75  73  92 CALM      29.95F

$$

AMZ130-135-150-152-154-156-158-170-250-252-270-ANZ085-086-088-633-658-670-040700-
MARINE OBSERVATIONS

STATION/POSITION TIME  TEMP    WIND        PRES    WAVE   SWELL
                       AIR SEA DIR/SP/G            HT/PER HT/PER
                 (UTC) (F)     (DEG/KT/KT) (MB)    (FT/S) (FT/S)
CHESAPEAKE LIGHT 0600   78     210/ 23/ 25 1013.6
64 E VA BEACH    0550   80 81  210/ 25/ 31 1013.5    6/ 6   2/11
DUCK             0600   79 64  200/ 12/ 20 1013.8
2 E DUCK         0511      70                N/A     2/ 5
OREGON INLET     0600   80 80  190/ 20/ 24 1015.0
13E OREGON INLT  0600      79                N/A     4/ 5   2/11
HATTERAS CG      0600   80 79  190/  5/  9 1015.4
DIAMOND BUOY     0550   82 84  190/ 19/ 23 1015.8    5/ 5   2/11
CAPE LOOKOUT     0600   81     200/  9/ 12 1015.3
BEAUFORT LAB     0600   82 80  200/ 10/ 13 1014.8
30 SE NEW RVR IN NOT AVBL
27 SE WRIGHTSVLE 0600   79 81  200/ 16/ 17   N/A
5 SE WRIGHTSVLE  0508   82 82  190/ 14/ 19 1015.1
225 S CAPE HAT   0550   82 81  180/ 10/ 12 1018.0    5/ 6   5/ 6
41 SE CHARLESTON 0550   80 83  180/ 14/ 17 1012.7    6/ 7   5/ 7

$$


USA.gov is the U.S. government's official web portal to all federal, state and local government web resources and services.